STARLINK-2386, 47805

Orbit data source: Space-Track

STARLINK-2386, 47805 is a payload satellite owned by SpaceX/Seattle (US) in LEO that was launched on Thu, 11 Mar 2021 UTC via an FALCON 9 launch vehicle from the Air Force Eastern Test Range (AFETR). Payload-class satellites include a variety of spacecraft equipped with specific instruments for various scientific and technological missions. These include communications satellites like Starlink; space stations such as the ISS; scientific satellites like the Hubble; Earth observation satellites from companies like Planet Labs, Umbra, and HawkEye 360; GPS; miniature CubeSats for education and research; and military/defense satellites.

Loading next visibility...
Identifier
47805, 2021-018U
Orbit
LEO
Country
Flag of USUS
Related business
Manufacturer
SpaceX/Seattle
Mission
Operational Commercial Communications
Bus & Motor
STARLINK, Unknown motor
Mass
260 kg wet, ~248 kg dry
Launch date (UTC)
2021-03-11 (5 years ago)
Launch vehicle
FALCON 9
Launch site
Air Force Eastern Test Range (AFETR)
Object type
Payload
Rocket body
Debris
Shape & HBR
Box + 1 Pan, 10.1 m
Radar Cross Section
13.562 m², Large (>1 m²)

Expand to show TLE details & history
Last TLE update: 14 hours ago

TLE from 14 hours ago
0 STARLINK-2386
1 47805U 21018U   26035.24170395 -.00002254  00000-0 -13250-3 0  9992
2 47805  53.0551  22.0149 0001266  92.3227 267.7906 15.06400893271837
Epoch: 2026-02-04T05:48Z
TLE epoch observation values (Epoch: 2026-02-04T05:48:03.221Z)
Latitude
-0.00009°
Longitude
160.59031°
Altitude
548.122 km
Speed
7.589 km/s
True Right ascension
01h 28m 03s
True Declination
0° 00' 00"
Sunlit
Object was in daylight at epoch
Visualization orbit readout
Latitude
Unknown
Longitude
Unknown
Altitude
Unknown
Speed
Unknown
Apparent Right ascension
Unknown
Apparent Declination
Unknown
Sunlit
N/A
Visualization observer readout
Local Sidereal Time
21:22:08
Azimuth
Unknown
Elevation
Unknown
Doppler factor
Unknown
Orbital elements
Apogee altitude
548.356 km
Perigee altitude
546.603 km
Semi-major axis
6,925.616 km
Eccentricity
0.00013
Inclination
53.0551°
RAAN
22.0149°
Arg. of periapsis
92.3227°
True anomaly
267.7761°
Mean anomaly
267.7906°
Eccentric anomaly
267.78335°
Mean motion
3.76578 °/min
Orbital period
95.6 mins
BSTAR
-0.0001325
Loading maneuver chart data...
Computing Atmospheric mass density...
Loading historical data...
Loading historical data...
Loading historical data...
Loading historical data...
Loading historical data...
Loading historical data...
Loading historical data...

Documentation

Showing up to 5 results
|